• In Czech Republic
  • List of Countries
  • For 7 days
  • Water Temperature
  • Satellite Maps
  • Weather Map
  • Weather Widgets
  • user-avatar
    Login

    Hourly Weather Mazatecochco

    Today, 19 July, Thursday

    Time Temperature Precipitation Wind Pressure Humidity
    00:00 +12°C° 0 mm 2 mps 576 mmHg 84%
    01:00 +12°C° 0 mm 1 mps 576 mmHg 84%
    02:00 +11°C° 0 mm 1 mps 575 mmHg 83%
    03:00 +11°C° 0 mm 1 mps 575 mmHg 81%
    04:00 +11°C° 0 mm 1 mps 575 mmHg 79%
    05:00 +10°C° 0 mm 1 mps 575 mmHg 77%
    06:00 +13°C° 0 mm 1 mps 576 mmHg 67%
    07:00 +16°C° 0 mm 1 mps 578 mmHg 58%
    08:00 +17°C° 0 mm 0 mps 579 mmHg 49%
    09:00 +21°C° 0 mm 1 mps 580 mmHg 44%
    10:00 +22°C° 0 mm 1 mps 580 mmHg 39%
    11:00 +24°C° 0 mm 2 mps 580 mmHg 34%
    12:00 +24°C° 0 mm 2 mps 580 mmHg 34%
    13:00 +25°C° 0 mm 2 mps 580 mmHg 35%
    14:00 +25°C° 0 mm 3 mps 580 mmHg 35%
    15:00 +24°C° 0.2 mm 3 mps 579 mmHg 44%
    16:00 +21°C° 0.2 mm 3 mps 578 mmHg 52%
    17:00 +20°C° 0.2 mm 3 mps 577 mmHg 60%
    18:00 +18°C° 0.5 mm 2 mps 577 mmHg 67%
    19:00 +17°C° 0.5 mm 2 mps 577 mmHg 74%
    20:00 +15°C° 0.5 mm 1 mps 577 mmHg 81%
    21:00 +14°C° 0.3 mm 1 mps 577 mmHg 82%
    22:00 +14°C° 0.3 mm 1 mps 577 mmHg 83%
    23:00 +13°C° 0.3 mm 1 mps 577 mmHg 84%

    Tomorrow, 20 July, Friday

    Time Temperature Precipitation Wind Pressure Humidity
    00:00 +13°C° 0.1 mm 1 mps 576 mmHg 85%
    01:00 +13°C° 0.1 mm 1 mps 576 mmHg 85%
    02:00 +12°C° 0.1 mm 1 mps 576 mmHg 86%
    03:00 +12°C° 0 mm 1 mps 575 mmHg 87%
    04:00 +12°C° 0 mm 1 mps 575 mmHg 88%
    05:00 +12°C° 0 mm 1 mps 575 mmHg 89%
    06:00 +14°C° 0 mm 1 mps 576 mmHg 83%
    07:00 +16°C° 0 mm 1 mps 577 mmHg 77%
    08:00 +18°C° 0 mm 1 mps 578 mmHg 71%
    09:00 +19°C° 0.1 mm 2 mps 579 mmHg 65%
    10:00 +20°C° 0.1 mm 2 mps 580 mmHg 60%
    11:00 +23°C° 0.1 mm 2 mps 580 mmHg 54%
    12:00 +22°C° 1.3 mm 3 mps 580 mmHg 56%
    13:00 +22°C° 1.3 mm 3 mps 579 mmHg 58%
    14:00 +21°C° 1.3 mm 3 mps 579 mmHg 60%
    15:00 +21°C° 1 mm 3 mps 578 mmHg 63%
    16:00 +20°C° 1 mm 2 mps 578 mmHg 66%
    17:00 +19°C° 1 mm 2 mps 578 mmHg 69%
    18:00 +18°C° 0.1 mm 2 mps 578 mmHg 73%
    19:00 +16°C° 0.1 mm 2 mps 577 mmHg 78%
    20:00 +15°C° 0.1 mm 2 mps 577 mmHg 83%
    21:00 +14°C° 0 mm 2 mps 577 mmHg 84%
    22:00 +13°C° 0 mm 2 mps 577 mmHg 85%
    23:00 +13°C° 0 mm 2 mps 577 mmHg 86%

    Day after tomorrow, 21 July, Saturday

    Time Temperature Precipitation Wind Pressure Humidity
    00:00 +12°C° 0 mm 2 mps 577 mmHg 86%
    01:00 +12°C° 0 mm 2 mps 576 mmHg 85%
    02:00 +10°C° 0 mm 2 mps 576 mmHg 85%
    03:00 +10°C° 0 mm 2 mps 575 mmHg 83%
    04:00 +10°C° 0 mm 2 mps 575 mmHg 80%
    05:00 +9°C° 0 mm 2 mps 575 mmHg 78%
    06:00 +13°C° 0 mm 2 mps 577 mmHg 68%
    07:00 +16°C° 0 mm 2 mps 578 mmHg 57%
    08:00 +18°C° 0 mm 2 mps 579 mmHg 47%
    09:00 +20°C° 0 mm 2 mps 580 mmHg 41%
    10:00 +23°C° 0 mm 2 mps 581 mmHg 36%
    11:00 +24°C° 0 mm 3 mps 581 mmHg 30%
    12:00 +25°C° 0 mm 3 mps 581 mmHg 31%
    13:00 +25°C° 0 mm 3 mps 581 mmHg 31%
    14:00 +25°C° 0 mm 4 mps 580 mmHg 32%
    15:00 +23°C° 0 mm 4 mps 580 mmHg 39%
    16:00 +22°C° 0 mm 4 mps 579 mmHg 46%
    17:00 +21°C° 0 mm 4 mps 578 mmHg 53%
    18:00 +19°C° 0 mm 4 mps 578 mmHg 63%
    19:00 +16°C° 0 mm 3 mps 578 mmHg 72%
    20:00 +13°C° 0 mm 3 mps 577 mmHg 81%
    21:00 +13°C° 0 mm 3 mps 577 mmHg 83%
    22:00 +12°C° 0 mm 3 mps 577 mmHg 86%
    23:00 +13°C° 0 mm 2 mps 578 mmHg 89%

    22 July, Sunday

    Time Temperature Precipitation Wind Pressure Humidity
    00:00 +13°C° 0 mm 2 mps 577 mmHg 89%
    01:00 +12°C° 0 mm 2 mps 577 mmHg 89%
    02:00 +12°C° 0 mm 2 mps 576 mmHg 89%
    03:00 +10°C° 0 mm 2 mps 576 mmHg 87%
    04:00 +10°C° 0 mm 2 mps 576 mmHg 86%
    05:00 +10°C° 0 mm 2 mps 576 mmHg 85%
    06:00 +13°C° 0 mm 2 mps 577 mmHg 73%
    07:00 +16°C° 0 mm 2 mps 579 mmHg 62%
    08:00 +18°C° 0 mm 2 mps 580 mmHg 50%
    09:00 +20°C° 0 mm 2 mps 580 mmHg 47%
    10:00 +21°C° 0 mm 2 mps 581 mmHg 43%
    11:00 +24°C° 0 mm 3 mps 581 mmHg 40%
    12:00 +24°C° 0.1 mm 3 mps 580 mmHg 43%
    13:00 +24°C° 0.1 mm 3 mps 580 mmHg 45%
    14:00 +24°C° 0.1 mm 3 mps 579 mmHg 48%
    15:00 +23°C° 0.5 mm 2 mps 579 mmHg 54%
    16:00 +21°C° 0.5 mm 2 mps 578 mmHg 59%
    17:00 +20°C° 0.5 mm 2 mps 578 mmHg 65%
    18:00 +18°C° 0.1 mm 2 mps 578 mmHg 70%
    19:00 +17°C° 0.1 mm 2 mps 577 mmHg 75%
    20:00 +15°C° 0.1 mm 2 mps 577 mmHg 81%
    21:00 +14°C° 0 mm 2 mps 577 mmHg 82%
    22:00 +14°C° 0 mm 2 mps 577 mmHg 84%
    23:00 +13°C° 0 mm 2 mps 577 mmHg 86%

    23 July, Monday

    Time Temperature Precipitation Wind Pressure Humidity
    00:00 +13°C° 0 mm 2 mps 576 mmHg 86%
    01:00 +12°C° 0 mm 2 mps 576 mmHg 86%
    02:00 +12°C° 0 mm 1 mps 575 mmHg 86%
    03:00 +11°C° 0 mm 1 mps 575 mmHg 83%
    04:00 +11°C° 0 mm 1 mps 575 mmHg 81%
    05:00 +11°C° 0 mm 1 mps 575 mmHg 78%
    06:00 +14°C° 0 mm 1 mps 577 mmHg 68%
    07:00 +16°C° 0 mm 1 mps 578 mmHg 58%
    08:00 +20°C° 0 mm 1 mps 579 mmHg 49%
    09:00 +21°C° 0 mm 1 mps 580 mmHg 43%
    10:00 +23°C° 0 mm 2 mps 580 mmHg 37%
    11:00 +25°C° 0 mm 2 mps 580 mmHg 32%
    12:00 +25°C° 0 mm 2 mps 580 mmHg 32%
    13:00 +26°C° 0 mm 2 mps 580 mmHg 32%
    14:00 +26°C° 0 mm 3 mps 580 mmHg 33%
    15:00 +25°C° 0 mm 3 mps 579 mmHg 40%
    16:00 +22°C° 0 mm 3 mps 579 mmHg 47%
    17:00 +21°C° 0 mm 3 mps 578 mmHg 54%
    18:00 +19°C° 0.1 mm 3 mps 578 mmHg 62%
    19:00 +17°C° 0.1 mm 2 mps 577 mmHg 69%
    20:00 +15°C° 0.1 mm 2 mps 577 mmHg 76%
    21:00 +14°C° 0 mm 2 mps 577 mmHg 78%
    22:00 +14°C° 0 mm 2 mps 577 mmHg 80%
    23:00 +13°C° 0 mm 2 mps 577 mmHg 82%

    24 July, Tuesday

    Time Temperature Precipitation Wind Pressure Humidity
    00:00 +13°C° 0 mm 1 mps 576 mmHg 80%
    01:00 +12°C° 0 mm 1 mps 576 mmHg 79%
    02:00 +12°C° 0 mm 1 mps 575 mmHg 78%
    03:00 +12°C° 0 mm 1 mps 575 mmHg 75%
    04:00 +11°C° 0 mm 1 mps 575 mmHg 72%
    05:00 +11°C° 0 mm 1 mps 575 mmHg 69%
    06:00 +14°C° 0 mm 1 mps 577 mmHg 61%
    07:00 +16°C° 0 mm 1 mps 578 mmHg 53%
    08:00 +20°C° 0 mm 1 mps 580 mmHg 44%
    09:00 +21°C° 0 mm 1 mps 580 mmHg 40%
    10:00 +23°C° 0 mm 1 mps 581 mmHg 35%
    11:00 +24°C° 0 mm 1 mps 581 mmHg 31%
    12:00 +25°C° 0 mm 2 mps 581 mmHg 31%
    13:00 +25°C° 0 mm 2 mps 580 mmHg 31%
    14:00 +26°C° 0 mm 3 mps 580 mmHg 32%
    15:00 +24°C° 0.1 mm 3 mps 579 mmHg 39%
    16:00 +22°C° 0.1 mm 3 mps 579 mmHg 46%
    17:00 +20°C° 0.1 mm 3 mps 578 mmHg 53%
    18:00 +18°C° 0.3 mm 2 mps 578 mmHg 60%
    19:00 +17°C° 0.3 mm 2 mps 578 mmHg 66%
    20:00 +15°C° 0.3 mm 2 mps 578 mmHg 72%
    21:00 +14°C° 0 mm 2 mps 578 mmHg 74%
    22:00 +13°C° 0 mm 2 mps 577 mmHg 77%
    23:00 +13°C° 0 mm 2 mps 577 mmHg 79%
    Show more